Regional Weather Roundup
Issued by NWS Charleston, SC

Current Version | Previous Version | Graphics & Text | Print | Product List | Glossary On
Versions: 1 2 3 4 5 6 7 8 9 10 11 12 13 14 15 16 17 18 19 20 21 22 23 24 25 26 27 28 29 30 31 32 33 34 35 36 37 38 39 40 41 42 43 44 45 46 47 48 49 50
000
ASUS42 KCHS 061226
RWRCHS

REGIONAL WEATHER ROUNDUP
NATIONAL WEATHER SERVICE CHARLESTON SC
800 AM EDT WED MAY 06 2015

NOTE: "FAIR" INDICATES FEW OR NO CLOUDS BELOW 12,000 FEET WITH NO
SIGNIFICANT WEATHER AND/OR OBSTRUCTIONS TO VISIBILITY.

NOT ALL STATIONS ARE QUALITY CONTROLLED BY THE NATIONAL
WEATHER SERVICE. USE DATA WITH CAUTION...ESPECIALLY
DEWPOINT OBSERVATIONS.

SCZ027-030-031-034>040-042>050-061300-
...SOUTHEAST SOUTH CAROLINA...

CITY           SKY/WX    TMP DP  RH WIND       PRES   REMARKS
N CHARLESTON   PTSUNNY   64  61  90 NE7       30.18S
6HR MIN TEMP:  61; 6HR MAX TEMP:  64;

WATERFRONT PRK   N/A     68 N/A N/A N12         N/A
MOUNT PLEASANT FAIR      64  63  94 MISG      30.18S
PINOPOLIS      NOT AVBL
MONCKS CORNER  FAIR      64  59  82 NE7       30.19S
SUMMERVILLE    FAIR      63  63 100 N3        30.20S
BEAUFORT MCAS  MOSUNNY   65  62  90 NE7       30.17R
6HR MIN TEMP:  61; 6HR MAX TEMP:  65;

BEAUFORT ARPT  FAIR      66  63  88 CALM      30.17R
HILTON HEAD IS PTSUNNY   66  64  94 N6        30.16S
WALTERBORO     MOSUNNY   61  59  94 N3        30.20R
ALLENDALE      FAIR      63  61  94 VRB5      30.19R

...SOUTHERN MIDLANDS AND PEE DEE...

CITY           SKY/WX    TMP DP  RH WIND       PRES   REMARKS
GEORGETOWN     NOT AVBL
KINGSTREE      NOT AVBL
ORANGEBURG     MOSUNNY   59  56  89 CALM      30.21S
6HR MIN TEMP:  55; 6HR MAX TEMP:  59;

BARNWELL       FAIR      63  61  94 NE6       30.22R
AIKEN          FAIR      59  55  88 NE3       30.25S
MANNING        FAIR      59  54  82 NE5       30.22R
COLUMBIA       PTSUNNY   59  54  83 CALM      30.22S
6HR MIN TEMP:  54; 6HR MAX TEMP:  64;

SUMTER         PTSUNNY   59  56  91 NE7       30.21S
6HR MIN TEMP:  55; 6HR MAX TEMP:  59;

FLORENCE       MOSUNNY   60  56  86 NE3       30.22S
6HR MIN TEMP:  56; 6HR MAX TEMP:  60;

MYRTLE BEACH   PTSUNNY   63  55  77 NE7       30.23R
N MYRTLE BEACH CLOUDY    63  58  83 NE6       30.21R
6HR MIN TEMP:  57; 6HR MAX TEMP:  63;


$$

GAZ063-065-086>088-099>101-113>116-118-119-134>141-150-061300-
...SOUTHEAST GEORGIA...

CITY           SKY/WX    TMP DP  RH WIND       PRES   REMARKS
SAVANNAH ARPT  CLOUDY    64  60  87 NE8       30.16S
6HR MIN TEMP:  60; 6HR MAX TEMP:  65;

HUNTER AAF     PTSUNNY   66  63  89 NE5       30.13S
6HR MIN TEMP:  64; 6HR MAX TEMP:  67;

FORT STEWART   MOSUNNY   62  60  93 NE7       30.14R
6HR MIN TEMP:  61; 6HR MAX TEMP:  64;

STATESBORO       N/A     61  61 100 NE5       30.19R
SYLVANIA       PTSUNNY   61  61  99 NE3       30.20R
CLAXTON        FAIR      63  61  94 CALM      30.18R

...CSRA...CENTRAL AND FAR SOUTHEAST GEORGIA...

CITY           SKY/WX    TMP DP  RH WIND       PRES   REMARKS
THOMSON        SUNNY     55  55 100 CALM      30.27R
AUGUSTA-BUSH   PTSUNNY   59  56  89 N5        30.21R
6HR MIN TEMP:  50; 6HR MAX TEMP:  59;

AUGUSTA-DANIEL PTSUNNY   62  55  77 N6        30.22R
SWAINSBORO     FAIR      63  63 100 E5        30.20R
VIDALIA        MOSUNNY   61  61 100 N5        30.19R
EASTMAN        FAIR      61  61 100 NE3       30.22R
HAZLEHURST     FAIR      63  62  99 N5        30.17R
ALMA           SUNNY     62  60  93 VRB3      30.15R
6HR MIN TEMP:  59; 6HR MAX TEMP:  62;

WAYCROSS       MOSUNNY   67  66  96 NE3       30.15R
JESUP          FAIR      68  64  88 NE7       30.15R
BAXLEY         FAIR      64  63  94 NE6       30.16R
BRUNSWICK      PTSUNNY   68  64  88 N7        30.14R
SAINT SIMONS   CLOUDY    70  66  87 NE10      30.12R
6HR MIN TEMP:  67; 6HR MAX TEMP:  70;


$$

SCZ027-028-034-036>038-045-046-048>050-GAZ119-141-061300-
...LAKE AND SUPPLEMENTAL COASTAL OBSERVATIONS...

STATION/POSITION TIME  TEMP    WIND        PRES    WAVE   SWELL
                       AIR SEA DIR/SP/G            HT/PER HT/PER/DIR
                 (UTC) (F)     (DEG/KT/KT) (MB)    (FT/S) (FT/S/D)
UPR LAKE MARION  NOT AVBL
WINYAH BAY       1100   67      40/  6     1021.0
LAKE MURRAY      1100   60      CALM  /  2 1023.0R
ACE BASIN NERRS  NOT AVBL
FORT PULASKI     1100   65 70  360/  7/ 10 1021.2
SAPELO ISLAND    1200   68      20/  7     1020.0S

$$

ANZ835-935-AMZ111-154-330-350-352-354-370-450-454-472-061300-
...C-MAN AND BUOY OBSERVATIONS...

STATION/POSITION TIME  TEMP    WIND        PRES    WAVE   SWELL
                       AIR SEA DIR/SP/G            HT/PER HT/PER/DIR
                 (UTC) (F)     (DEG/KT/KT) (MB)    (FT/S) (FT/S/D)
BUOY 41004       1150   73 73   60/ 16/ 19 1020.3R   6/ 7   5/ 7
BUOY 41008       1150   70 70   40/ 12/ 16 1020.0R   5/ 8   5/120/ 8
FOLLY BEACH CMAN 1200   68      30/ 14/ 16 1021.6R
CAPERS NEARSHORE 1108   69      40/ 16/ 19 1021.6R
FRIPP NEARSHORE  1100   69      30/ 16/ 17 1020.3R


STATION/POSITION TIME  TEMP    WIND        PRES    WAVE   SWELL
                       AIR SEA DIR/SP/G            HT/PER HT/PER/DIR
                 (UTC) (F)     (DEG/KT/KT) (MB)    (FT/S) (FT/S/D)
5E ST. MARYS GA  1121      71                N/A     5/ 7
FRYING PAN BUOY  1150   73 71   80/ 14/ 16 1023.0R   4/ 7   3/140/ 7
BUOY 41025       1150   71 75  110/  8/ 10 1024.3S   3/ 7   3/140/ 7
CAPE LOOKOUT NC  1200   67      40/  8/  9 1023.7R
BUOY 41002       1150   67 71   90/ 21/ 25 1021.2R   7/ 8
BUOY 41010       1120   71 78   20/ 16/ 19 1015.9R
ST AUGUSTINE FL  1200   71 72   20/ 14/ 15 1019.5R


$$



USA.gov is the U.S. government's official web portal to all federal, state and local government web resources and services.